Flag for Canada Weather past 2 weeks in Coral Harbour, Nunavut, Canada

Now
46 °F

Partly sunny.


Feels Like: 46 °F
Forecast: 33 / 50 °F
Wind: 2 mph from North

Location: Coral Harbour

Current Time: Sep 2, 2015 at 12:36:07 PM

Latest Report: Sep 2, 2015 at 12:00 PM


Visibility: 15 mi

Pressure: 29.98 "Hg

Humidity: 62%

Dew point: 34 °F

Location of Coral HarbourLocation

Historic Weather in Coral Harbour — Graph

°F

Coral Harbour temperature yesterday

Maximum temperature yesterday: 50 °F (at 2:00 PM)
Minimum temperature yesterday: 32 °F (at 5:00 AM)
Average temperature yesterday: 41 °F

Past Weeks' High & Low Weather Summary

 TemperatureHumidityPressure
High54 °F (Aug 19, 2:00 PM)100% (Aug 31, 1:00 AM)30.12 "Hg (Aug 31, 1:00 AM)
Low28 °F (Aug 31, 5:00 AM)50% (Aug 18, 12:00 PM)29.56 "Hg (Aug 27, 2:00 PM)
Average41 °F79%29.92 "Hg
* Reported Aug 18 11:00 AM — Sep 2 11:00 AM, Coral Harbour, Weather by CustomWeather, © 2015

Note: Actual official high and low records may vary slightly from our data, if they occured in-between our weather recording intervals... More about our weather records

Advertising

Coral Harbour weather history for previous 24 hours

 ConditionsComfort  
Time TempWeatherWind HumidityBarometerVisibility
11:00 AM
Wed, Sep 2
46 °FOvercast.No wind62%29.99 "Hg15 mi
10:00 AM45 °FPartly sunny.5 mph66%29.99 "Hg15 mi
9:00 AM43 °FPartly sunny.7 mph71%30.00 "Hg15 mi
8:00 AM41 °FPartly sunny.7 mph81%29.99 "Hg15 mi
7:00 AM39 °FPartly sunny.9 mph81%29.99 "Hg15 mi
6:00 AM37 °FPassing clouds.9 mph87%30.00 "Hg15 mi
5:00 AM37 °FPassing clouds.9 mph87%29.98 "Hg15 mi
4:00 AM37 °FPassing clouds.7 mph87%29.98 "Hg15 mi
3:00 AM39 °FOvercast.5 mph81%29.98 "Hg15 mi
2:00 AM39 °FPassing clouds.5 mph81%29.98 "Hg15 mi
1:00 AM39 °FPassing clouds.6 mph81%29.98 "Hg15 mi
12:00 AM37 °FPassing clouds.5 mph87%29.98 "Hg15 mi
11:00 PM
Tue, Sep 1
39 °FPassing clouds.9 mph81%29.97 "Hg15 mi
10:00 PM39 °FPassing clouds.9 mph75%29.97 "Hg15 mi
9:00 PM41 °FPassing clouds.9 mph76%29.97 "Hg15 mi
8:00 PM43 °FPartly sunny.6 mph71%29.96 "Hg15 mi
7:00 PM45 °FPartly sunny.9 mph71%29.94 "Hg15 mi
6:00 PM46 °FPartly sunny.12 mph62%29.93 "Hg15 mi
5:00 PM46 °FPartly sunny.12 mph66%29.93 "Hg15 mi
4:00 PM48 °FBroken clouds.13 mph54%29.92 "Hg15 mi
3:00 PM50 °FBroken clouds.13 mph50%29.91 "Hg15 mi
2:00 PM50 °FBroken clouds.12 mph54%29.92 "Hg15 mi
1:00 PM48 °FBroken clouds.12 mph58%29.93 "Hg15 mi
12:00 PM48 °FBroken clouds.10 mph58%29.93 "Hg15 mi
Weather by CustomWeather, © 2015

See weather overviewHow to use our weather pages